Tracking 20623 objects as of 3-Apr-2020
HD Live streaming from Space Station
objects crossing your sky now

NSS 5 (INTELSAT 803)

Track NSS 5 (INTELSAT 803) now!
NSS 5 (INTELSAT 803) is classified as:


NORAD ID: 24957
Int'l Code: 1997-053A
Perigee: 35,775.6 km
Apogee: 35,810.0 km
Inclination: 5.8 °
Period: 1,436.0 minutes
Semi major axis: 42163 km
RCS: 25.1188 m2 (large)
Launch date: September 23, 1997
Source: Netherlands (NETH)
Launch site: FRENCH GUIANA (FRGUI)

38 C-band, 6 Ku-band; Pacific Ocean region; shared capacity with Intelset.
aabbcc
Your satellite tracking list
Your tracking list is empty




NASA's NSSDC Master Catalog

Two Line Element Set (TLE):
1 24957U 97053A   20094.47953943 +.00000099 +00000-0 +00000-0 0  9998
2 24957 005.8187 064.1628 0004088 309.6995 041.5483 01.00275112082459
Source of the keplerian elements: AFSPC